Location: Bailen
(14.1842°N, 120.7958°E)
Time: 05:58:17
(UTC+00:00)

Nadezhda 1 Rocket - Visible Passes

Search period start: 19 April 2026 00:00
Search period end: 29 April 2026 00:00
Orbit: 940 x 1005 km, 83.0° (Epoch: 18 April)

Date Brightness Start Highest point End Pass type
(mag) Time Alt. Az. Time Alt. Az. Time Alt. Az.
19 Apr 6.5 20:50:58 10° SE 20:55:56 24° E 21:00:51 10° NE visible
20 Apr 5.1 21:14:06 10° SSE 21:20:12 51° E 21:26:14 10° NNE visible
22 Apr 7.2 10:38:11 10° WNW 10:40:29 12° W 10:42:48 10° WSW visible
22 Apr 6.7 20:19:52 10° SE 20:24:02 18° E 20:28:09 10° NE visible
23 Apr 5.5 20:42:29 10° SSE 20:48:17 39° E 20:54:00 10° NNE visible
24 Apr 4.2 21:06:17 10° S 21:12:35 81° E 21:18:49 10° N visible
25 Apr 6.8 19:49:13 10° ESE 19:52:09 14° E 19:55:02 10° ENE visible
26 Apr 5.9 20:11:00 10° SSE 20:16:22 30° E 20:21:38 10° NNE visible
27 Apr 4.5 20:34:26 10° S 20:40:39 63° E 20:46:45 10° NNE visible
28 Apr 4.0 20:58:47 10° SSW 21:05:00 64° W 21:11:08 10° N visible
